sat.trackr.live / text

‹ back to catalog

STARLINK-35046

NORAD 65701 · 2025-212AB

PAYLOAD ACTIVE UNKNOWN

§ Identity

Operator
Country
US
Launch date
2025-09-21
Launch site
AFETR
Launch vehicle
Mass (kg)
RCS (m²)

Purposes: comms

External: N2YO · Heavens-Above · Gunter

§ Orbital elements

Epoch: 2026-09-20T10:29:57.329376Z

Period
93.85 min
Inclination
53.1597°
Eccentricity
0.0000637
Mean motion
15.34392466 rev/d
Perigee alt
462.3 km
Apogee alt
463.2 km
Semi-major
6,840.9 km
B*
5.5740e-4
RAAN
158.0186°
Arg perigee
67.4525°
Mean anomaly
292.6545°
Rev number
5,710

§ Raw data

STARLINK-350461 65701U 25212AB  26263.43746909  .00018498  00000+0  55740-3 0  99952 65701  53.1597 158.0186 0000637  67.4525 292.6545 15.34392466 57104

JSON: /api/v1/satellites/65701 · /tle

For live sub-satellite position, see the globe view (requires WebGL).

§ Visibility from observer

Set your observer location to see the next 7 days of passes ≥ 10°. The values pass through the URL so the page stays shareable.

No JS? Fill the form by hand. The geolocation button needs JavaScript.